User: anonymous   Login
Location: Sherrills_Ford_Terrell
(35.6000°N, 80.9830°W)
Time: 06:59:10
(UTC-04:00)
Language:

CZ-4B R/B - Orbit

View from above orbital plane
View from above orbital plane
View from above satellite
View from above satellite

Ground track
Ground track

The orbit data is extracted from the following two-line orbital elements,

1 29093U 06015B   17291.84211482  .00003991  00000-0  93765-4 0  9991
2 29093  97.5063  45.8564 0061356 232.0439 127.5254 15.40681209636569
Epoch (UTC): 18 October 2017 20:12:38
Eccentricity: 0.0061356
inclination: 97.5063°
perigee height: 402 km
apogee height: 486 km
right ascension of ascending node: 45.8564°
argument of perigee: 232.0439°
revolutions per day: 15.40681209
mean anomaly at epoch: 127.5254°
orbit number at epoch: 63656

The dashed part of the orbit path shows where the satellite is in the earth's shadow,  

DLR